星链-3704 (STARLINK-3704 )

导读

STARLINK-3704是美国SpaceX公司星链(Starlink)星座的组网卫星,于2022年3月9日发射入轨。星链星座旨在搭建全球低轨宽带互联网,该卫星属于量产型卫星,搭载Ku/Ka波段通信载荷,采用氪工质霍尔推进器,具备自主避撞能力,设计寿命约5-7年,退役后会主动离轨坠入大气层焚毁,为星链星座的全球覆盖提供支撑。

基本信息
目录编号:
51959
目录名称:
STARLINK-3704
国际标识:
2022-025D
轨道中心:
EARTH
卫星名称:
星链-3704
卫星全名:
星链-3704 (STARLINK-3704 )
卫星状态:
在轨 (已飞行1561 天)
发射日期:
2022-03-09 UTC
国别 :
美国 (US)
星等 :
--
轨道信息
数据来源 国际轨道数据
星历时间: 2026-06-16T23:36:54+0800
23小时前
查看轨道信息
半长轴: 6848.85km
偏心率: 0.0001045
轨道倾角: 53.161°
近地点辐角 81.032°
升交点赤经 297.067°
平近点角 279.080°
近地点: 469.997km
远地点: 471.429km
周期: 94.013分钟
每日圈数: 15.317091
详细信息
固有亮度:
5
最大亮度:
2.5
卫星平台:
Starlink v1.5
覆盖范围:
全球
运营商:
太空探索技术公司
运营商所在国:
美国
制造商(研发单位):
太空探索技术公司
制造商所在国:
美国
使用方式:
暂无
卫星简介
星链(Starlink)计划是由太空探索技术公司(SpaceX)提出的一个巨型低轨卫星互联网星座项目,计划在2019年至2024年间在太空搭建由约1.2万颗卫星组成的“星链”网络,其中1584颗将部署在地球上空550千米处的近地轨道,并从2020年开始工作。该卫星仍在工作。
2D轨道图
3D轨道图
轨道高度分析图
轨道倾角分析图
轨道综合分析图
查看轨道综合分析图